| time (UTC) | temp F | wind direction | speed MPH | gust MPH | rain 1hr in | rain 24hr in | rain mn in | humidity % | barometer mb |
| 20260504081523 | 55 | 176 | 9.0 | 14.0 | 0.00 | 0.00 | 0.00 | 63 | 1010.2 |
| 20260504060120 | 56 | 188 | 5.0 | 11.0 | 0.00 | 0.00 | 0.00 | 60 | 1011.6 |
| 20260504050103 | 56 | 172 | 6.0 | 10.0 | 0.00 | 0.00 | 0.00 | 59 | 1012.0 |
| 20260504044550 | 56 | 181 | 5.0 | 11.0 | 0.00 | 0.00 | 0.00 | 61 | 1012.1 |
| 20260504043052 | 55 | 186 | 3.0 | 7.0 | 0.00 | 0.00 | 0.00 | 62 | 1012.3 |
| 20260504041548 | 55 | 163 | 0.0 | 5.0 | 0.00 | 0.00 | 0.00 | 62 | 1012.5 |
| 20260504040045 | 55 | 170 | 1.0 | 4.0 | 0.00 | 0.00 | 0.00 | 62 | 1012.6 |
| 20260504034544 | 55 | 159 | 3.0 | 5.0 | 0.00 | 0.00 | 0.00 | 63 | 1012.6 |
| 20260504033048 | 57 | 189 | 1.0 | 6.0 | 0.00 | 0.00 | 0.00 | 61 | 1012.8 |
| 20260504031547 | 58 | 191 | 1.0 | 3.0 | 0.00 | 0.00 | 0.00 | 55 | 1013.0 |
| 20260504030044 | 60 | 191 | 0.0 | 0.0 | 0.00 | 0.00 | 0.00 | 52 | 1013.0 |
| 20260504024543 | 60 | 190 | 2.0 | 8.0 | 0.00 | 0.00 | 0.00 | 50 | 1012.8 |
| 20260504023042 | 60 | 173 | 4.0 | 8.0 | 0.00 | 0.00 | 0.00 | 50 | 1012.4 |
| 20260504021541 | 60 | 189 | 6.0 | 9.0 | 0.00 | 0.00 | 0.00 | 49 | 1012.0 |
| 20260504020041 | 61 | 198 | 6.0 | 11.0 | 0.00 | 0.00 | 0.00 | 49 | 1011.9 |
| 20260504014553 | 61 | 173 | 10.0 | 14.0 | 0.00 | 0.00 | 0.00 | 48 | 1011.9 |
| 20260504013041 | 61 | 178 | 8.0 | 11.0 | 0.00 | 0.00 | 0.00 | 49 | 1012.1 |
| 20260504011539 | 61 | 203 | 6.0 | 10.0 | 0.00 | 0.00 | 0.00 | 49 | 1012.3 |
| 20260504010037 | 61 | 209 | 3.0 | 6.0 | 0.00 | 0.00 | 0.00 | 49 | 1012.6 |
| 20260504004534 | 62 | 194 | 3.0 | 9.0 | 0.00 | 0.00 | 0.00 | 48 | 1012.5 |
| 20260504003033 | 63 | 207 | 2.0 | 8.0 | 0.00 | 0.00 | 0.00 | 47 | 1012.5 |
| 20260504001540 | 64 | 175 | 4.0 | 9.0 | 0.00 | 0.00 | 0.00 | 45 | 1012.3 |
| 20260504000040 | 65 | 186 | 6.0 | 10.0 | 0.00 | 0.00 | 0.00 | 43 | 1012.5 |
| 20260503234529 | 65 | 211 | 3.0 | 9.0 | 0.00 | 0.00 | 0.00 | 43 | 1012.6 |
| 20260503233028 | 66 | 209 | 7.0 | 14.0 | 0.00 | 0.00 | 0.00 | 42 | 1012.8 |
| 20260503231526 | 66 | 212 | 7.0 | 12.0 | 0.00 | 0.00 | 0.00 | 42 | 1013.1 |
| 20260503230031 | 66 | 192 | 6.0 | 14.0 | 0.00 | 0.00 | 0.00 | 41 | 1013.2 |
| 20260503224523 | 66 | 236 | 7.0 | 13.0 | 0.00 | 0.00 | 0.00 | 43 | 1013.4 |
| 20260503223019 | 66 | 206 | 9.0 | 14.0 | 0.00 | 0.00 | 0.00 | 40 | 1013.7 |
| 20260503221517 | 66 | 244 | 2.0 | 9.0 | 0.00 | 0.00 | 0.00 | 43 | 1014.2 |
| 20260503220020 | 67 | 214 | 4.0 | 15.0 | 0.00 | 0.00 | 0.00 | 41 | 1014.4 |
| 20260503214523 | 67 | 236 | 8.0 | 17.0 | 0.00 | 0.04 | 0.00 | 38 | 1014.5 |
| 20260503213010 | 67 | 224 | 2.0 | 11.0 | 0.00 | 0.04 | 0.00 | 40 | 1014.7 |
| 20260503211510 | 67 | 225 | 8.0 | 17.0 | 0.00 | 0.04 | 0.00 | 39 | 1015.0 |
| 20260503210013 | 66 | 190 | 7.0 | 14.0 | 0.00 | 0.04 | 0.00 | 38 | 1015.3 |
| 20260503204504 | 67 | 213 | 3.0 | 14.0 | 0.00 | 0.04 | 0.00 | 37 | 1015.5 |
| 20260503203108 | 67 | 231 | 4.0 | 12.0 | 0.00 | 0.04 | 0.00 | 41 | 1015.8 |
| 20260503201557 | 67 | 232 | 4.0 | 19.0 | 0.00 | 0.04 | 0.00 | 46 | 1016.1 |
| 20260503200055 | 66 | 213 | 5.0 | 14.0 | 0.00 | 0.04 | 0.00 | 43 | 1016.4 |
| 20260503194608 | 66 | 227 | 10.0 | 15.0 | 0.00 | 0.04 | 0.00 | 41 | 1016.9 |
| 20260503193050 | 65 | 197 | 11.0 | 19.0 | 0.00 | 0.04 | 0.00 | 43 | 1017.2 |
| 20260503191545 | 65 | 221 | 4.0 | 10.0 | 0.00 | 0.04 | 0.00 | 43 | 1017.5 |
| 20260503190049 | 65 | 219 | 9.0 | 16.0 | 0.00 | 0.04 | 0.00 | 42 | 1017.7 |
| 20260503184541 | 64 | 232 | 3.0 | 11.0 | 0.00 | 0.04 | 0.00 | 42 | 1017.9 |
| 20260503183037 | 64 | 215 | 6.0 | 11.0 | 0.00 | 0.04 | 0.00 | 44 | 1018.2 |
| 20260503181536 | 63 | 226 | 3.0 | 12.0 | 0.00 | 0.04 | 0.00 | 45 | 1018.2 |
| 20260503180033 | 63 | 194 | 11.0 | 15.0 | 0.00 | 0.04 | 0.00 | 42 | 1018.4 |
| 20260503174531 | 63 | 221 | 9.0 | 15.0 | 0.00 | 0.04 | 0.00 | 43 | 1018.6 |
| 20260503173044 | 62 | 206 | 5.0 | 14.0 | 0.00 | 0.04 | 0.00 | 43 | 1018.8 |
| 20260503171528 | 62 | 167 | 10.0 | 17.0 | 0.00 | 0.04 | 0.00 | 46 | 1019.1 |